Kirksville, MO

8:00 PM CDT on August 22, 2017 (GMT -0500)
Kirksville Regional

Weather History for KIRK - September, 2013

Change the Weather History Date:

Saturday, September 21, 2013

  Actual Average Record
Temperature  
Mean Temperature 58 °F 62 °F  
Max Temperature 72 °F 74 °F 95 °F (1940)
Min Temperature 44 °F 51 °F 35 °F (1918)
Degree Days  
Heating Degree Days 7 4  
Month to date heating degree days 32 44  
Since 1 July heating degree days 45 51  
Cooling Degree Days 0 2  
Month to date cooling degree days 171 72  
Year to date cooling degree days 981 916  
Growing Degree Days 8 (Base 50)    
Moisture  
Dew Point 46 °F    
Average Humidity 66    
Maximum Humidity 93    
Minimum Humidity 38    
Precipitation  
Precipitation 0.00 in 0.13 in 4.93 in (1947)
Month to date precipitation 1.33 3.04  
Year to date precipitation 31.22 30.45  
Sea Level Pressure  
Sea Level Pressure 29.99 in    
Wind  
Wind Speed 4 mph (NW)    
Max Wind Speed 13 mph    
Max Gust Speed 18 mph    
Visibility 10 miles    
Events      
T = Trace of Precipitation, MM = Missing Value Source: NWS Daily Summary

Daily Weather History Graph

Daily Weather History Graph

Search for Another Location

Airport or City:

Trip Planner

Search our weather history database for the weather conditions in past years. The results will help you decide how hot, cold, wet, or windy it might be!

Date:

Astronomy

Sep. 21, 2013 Rise Set
Actual Time 6:57 AM CDT 7:08 PM CDT
Civil Twilight 6:29 AM CDT 7:35 PM CDT
Nautical Twilight 5:58 AM CDT 8:07 PM CDT
Astronomical Twilight 5:25 AM CDT 8:39 PM CDT
Moon 8:19 PM CDT (9/21) 9:16 AM CDT (9/21)
Length of Visible Light 13h 05m
Length of Day
12h 11m
Waning Gibbous, 94% of the Moon is Illuminated
Sep 21
Waning Gibbous
Sep 26
Last Quarter
Oct 4
New
Oct 11
First Quarter
Oct 18
Full

Hourly Weather History & Observations

Time (CDT) Temp. Windchill Dew Point Humidity Pressure Visibility Wind Dir Wind Speed Gust Speed Precip Events Conditions
12:55 AM 51.1 °F - 48.9 °F 92% 29.98 in 10.0 mi WNW 4.6 mph - N/A   Clear
1:55 AM 51.1 °F - 48.9 °F 92% 29.99 in 10.0 mi NW 4.6 mph - N/A   Clear
2:55 AM 51.1 °F - 48.9 °F 92% 29.99 in 10.0 mi NNW 4.6 mph - N/A   Clear
3:55 AM 50.0 °F - 46.9 °F 89% 29.99 in 10.0 mi NNW 4.6 mph - N/A   Clear
4:55 AM 48.0 °F - 46.0 °F 93% 29.99 in 10.0 mi NW 4.6 mph - N/A   Clear
5:55 AM 46.9 °F - 44.1 °F 90% 30.00 in 10.0 mi NW 4.6 mph - N/A   Clear
6:55 AM 44.1 °F 42.5 °F 43.0 °F 96% 30.01 in 10.0 mi WNW 3.5 mph - N/A   Clear
7:55 AM 48.9 °F - 45.0 °F 86% 30.03 in 10.0 mi NNW 4.6 mph - N/A   Clear
8:55 AM 54.0 °F - 48.0 °F 80% 30.05 in 10.0 mi NW 6.9 mph - N/A   Clear
9:55 AM 59.0 °F - 46.9 °F 64% 30.05 in 10.0 mi NNW 8.1 mph - N/A   Clear
10:55 AM 63.0 °F - 46.0 °F 54% 30.04 in 10.0 mi North 9.2 mph - N/A   Clear
11:55 AM 64.9 °F - 45.0 °F 48% 30.04 in 10.0 mi NNW 10.4 mph - N/A   Clear
12:55 PM 66.0 °F - 45.0 °F 47% 30.03 in 10.0 mi WNW 6.9 mph 16.1 mph N/A   Clear
1:55 PM 69.1 °F - 44.1 °F 40% 30.01 in 10.0 mi NNW 10.4 mph - N/A   Clear
2:55 PM 70.0 °F - 45.0 °F 41% 29.99 in 10.0 mi NW 4.6 mph - N/A   Clear
3:55 PM 71.1 °F - 45.0 °F 39% 29.96 in 10.0 mi Variable 3.5 mph - N/A   Clear
4:55 PM 71.1 °F - 45.0 °F 39% 29.96 in 10.0 mi NW 5.8 mph - N/A   Clear
5:55 PM 70.0 °F - 44.1 °F 39% 29.95 in 10.0 mi NW 5.8 mph - N/A   Clear
6:55 PM 63.0 °F - 48.0 °F 58% 29.95 in 10.0 mi Calm Calm - N/A   Clear
7:55 PM 54.0 °F - 48.0 °F 80% 29.96 in 10.0 mi Calm Calm - N/A   Clear
8:55 PM 50.0 °F - 48.0 °F 93% 29.97 in 10.0 mi Calm Calm - N/A   Clear
9:55 PM 48.0 °F - 46.9 °F 96% 29.97 in 10.0 mi Calm Calm - N/A   Clear
10:55 PM 46.9 °F - 45.0 °F 93% 29.99 in 10.0 mi Calm Calm - N/A   Clear
11:55 PM 48.0 °F - 46.0 °F 93% 29.98 in 10.0 mi Calm Calm - N/A   Clear